Wind_Speed
32 34 34 34 34 34 34 35 36 37 35 31 28 26 28 30 31 31 31 33 35 38 39 40 41 43 44 46 48 50 51 52 54 56 56 57 56 55 55 56 57 59 59 60 61 62 63 64 67 69 70 70 67 63 60 55 48 44 40 40 36 32 32 31 28 26 24 25 27 25 24 23 23 22 21 20 20 20 19 19 21 22 23 24 24
34 36 37 36 36 36 36 37 39 38 37 35 34 34 37 37 36 35 36 37 39 40 40 41 43 45 47 49 51 52 53 55 57 58 59 58 57 57 57 59 60 61 62 64 64 64 66 68 69 71 72 71 67 63 60 56 51 45 39 38 36 32 31 29 28 28 28 28 27 27 26 25 24 23 21 21 20 20 20 19 19 20 22 23 23
36 37 38 37 36 38 39 41 42 41 39 39 39 40 41 40 40 39 40 41 41 41 42 43 44 46 48 50 52 54 56 58 60 60 60 60 59 60 60 61 63 64 65 66 66 67 69 71 72 73 73 71 67 63 58 55 51 45 40 37 36 34 31 30 28 28 30 31 29 28 27 26 25 24 22 21 21 21 20 20 19 19 21 22 22
36 36 36 36 37 40 42 43 44 44 43 42 43 43 43 42 42 41 41 41 42 43 44 45 47 48 50 52 54 57 59 61 62 62 62 62 63 63 64 64 66 67 68 68 68 70 71 73 74 74 73 71 67 63 57 53 50 45 41 37 35 34 32 31 29 28 30 33 32 30 29 29 28 26 25 23 21 21 21 21 20 19 20 20 21
33 33 34 36 38 40 42 43 45 45 45 44 44 44 44 43 43 43 43 43 44 45 47 48 49 51 53 56 58 60 62 63 64 65 65 65 66 66 66 68 69 69 70 70 71 72 73 75 75 74 73 70 67 62 57 53 49 44 40 38 35 34 33 32 30 30 31 32 34 32 30 31 31 30 28 26 23 22 21 21 21 20 19 19 19
33 33 34 37 39 40 42 43 44 45 45 45 45 45 45 46 45 44 45 46 47 48 50 52 54 56 58 60 61 63 64 65 66 67 67 68 68 68 69 71 71 71 72 72 72 74 75 76 76 75 73 69 65 61 57 53 48 42 40 38 35 34 35 35 33 32 33 32 33 33 32 32 32 32 31 29 25 24 22 21 21 20 19 19 18
35 34 36 38 40 42 42 43 44 44 45 45 47 47 48 48 47 46 48 50 51 53 55 57 59 60 61 62 63 64 65 67 68 68 69 70 70 71 72 73 73 73 73 74 74 75 76 77 76 75 72 68 64 61 57 52 47 42 39 38 36 34 35 37 35 33 34 34 32 32 32 31 32 33 32 30 28 27 24 23 22 21 20 19 18
37 36 37 39 41 43 43 44 45 45 45 46 48 49 50 50 50 50 52 54 56 56 58 60 61 62 63 63 64 66 67 68 68 70 71 72 72 73 74 74 74 75 75 75 76 77 77 77 76 74 70 67 64 60 56 51 47 43 39 38 37 35 35 36 37 36 35 35 33 32 32 31 32 33 33 32 31 30 28 26 24 22 21 20 18
39 38 39 40 42 43 45 46 47 47 46 47 48 50 52 53 54 55 56 57 58 58 59 61 62 63 64 65 66 67 67 68 70 71 72 73 73 74 75 75 76 76 76 76 77 78 78 77 75 71 68 66 64 60 55 50 46 43 40 39 38 36 35 36 38 39 37 36 35 34 31 29 30 33 34 34 32 31 30 29 28 26 24 22 19
41 41 41 42 43 44 46 48 49 48 47 47 49 50 52 55 56 58 58 59 60 60 60 62 62 63 64 65 67 67 68 70 71 73 73 74 74 75 75 76 76 76 77 77 78 78 78 76 73 70 68 66 63 60 55 51 46 44 41 39 39 38 36 36 38 41 40 38 37 35 32 29 29 32 34 36 34 32 32 30 29 28 26 24 20
43 44 45 45 46 46 47 49 49 50 49 49 50 51 53 54 55 57 58 58 58 58 59 60 62 63 65 66 68 69 70 72 73 74 74 75 75 75 76 77 77 77 77 78 78 77 75 73 71 69 67 65 62 59 55 52 49 45 43 40 40 40 38 36 38 43 42 40 38 35 34 32 32 33 34 37 36 34 34 32 29 28 27 25 22
46 47 48 48 48 48 48 49 50 50 51 51 51 53 53 54 54 54 55 55 56 56 57 59 61 63 65 67 68 70 72 73 73 74 74 74 75 76 76 77 77 78 78 77 76 74 73 72 71 69 67 64 61 58 55 53 51 48 45 42 40 40 40 38 38 43 46 44 41 39 37 37 36 35 35 38 39 38 36 33 30 29 28 27 24
48 49 50 50 50 50 49 49 49 50 52 52 52 52 53 54 54 54 54 55 55 56 57 59 61 63 65 67 68 70 72 73 73 73 73 75 75 76 77 78 78 78 77 76 74 72 71 71 70 68 66 64 61 59 57 55 53 51 48 45 42 41 41 40 39 42 47 48 46 44 43 43 42 38 36 37 38 39 37 33 32 31 31 29 26
49 50 51 52 52 52 52 50 49 50 52 53 53 52 53 53 54 55 56 57 57 58 59 60 61 63 65 67 68 69 71 72 72 73 74 75 76 77 79 79 79 78 76 75 73 72 71 70 68 67 65 63 62 61 59 57 55 53 50 47 44 42 42 42 41 41 46 50 49 49 47 46 46 43 40 39 38 39 38 34 33 33 33 32 29
51 52 53 53 54 54 53 51 50 51 52 53 53 53 54 54 55 56 57 57 57 58 59 60 61 63 64 66 67 68 70 71 72 73 74 75 77 79 79 78 77 76 75 74 73 72 70 69 67 66 65 64 63 63 62 60 57 54 51 48 46 44 43 43 43 42 45 49 51 52 52 48 47 47 45 43 42 42 39 36 36 36 34 34 33
53 53 53 53 53 53 52 51 51 52 53 54 54 54 54 55 55 56 56 57 57 58 59 60 62 63 65 66 68 69 70 72 73 74 75 76 78 78 77 76 76 75 75 74 73 71 69 68 66 65 65 65 65 65 63 62 59 55 51 49 47 45 44 44 44 44 45 48 51 54 56 53 49 49 49 46 46 46 42 39 40 39 37 36 35
52 52 52 52 52 52 52 52 52 53 54 54 54 54 54 55 56 56 56 57 58 59 60 62 63 65 67 69 70 71 73 74 75 76 77 77 76 76 75 75 75 75 74 73 71 70 69 68 67 67 67 67 67 66 64 62 60 57 53 50 48 46 45 45 45 46 46 47 51 55 59 58 54 52 51 48 47 47 44 41 40 41 40 38 37
51 52 52 52 52 52 52 52 52 53 53 53 53 53 54 55 56 57 57 58 59 61 63 65 67 68 70 71 72 73 75 76 77 78 77 76 75 75 75 75 75 74 73 72 70 69 69 68 69 70 70 70 69 67 65 63 61 60 57 53 49 47 45 45 46 47 47 48 50 54 59 61 59 56 54 51 49 48 46 43 42 43 43 41 39
51 52 51 51 51 51 51 51 51 52 52 52 52 52 53 54 56 58 59 61 62 64 65 67 68 69 70 72 73 74 75 76 76 77 77 77 76 74 73 73 73 73 72 70 69 69 70 71 71 72 71 71 70 69 67 65 63 61 59 56 52 48 45 45 46 47 49 49 51 54 58 62 63 61 58 53 50 49 48 47 46 45 45 44 42
50 50 50 50 49 49 49 49 50 51 51 51 51 51 52 53 55 58 60 61 63 64 65 67 68 70 71 73 74 74 75 75 75 76 76 76 76 75 74 72 71 70 70 69 70 70 72 73 73 73 72 71 70 69 67 66 65 63 61 58 54 50 46 45 46 48 49 50 51 54 57 62 64 64 63 58 53 51 50 49 47 46 47 47 45
49 49 49 48 47 47 47 48 49 50 50 51 51 51 52 54 56 58 59 61 62 64 65 67 68 70 71 72 73 73 73 74 74 74 74 74 74 75 74 73 71 70 70 70 71 72 73 74 73 73 72 72 72 70 68 66 64 63 62 58 54 50 48 46 46 47 49 51 53 54 56 61 65 67 67 63 57 53 52 51 49 47 48 49 47
47 47 47 46 46 46 47 48 49 50 52 52 53 54 55 57 59 59 60 61 63 64 65 67 68 69 70 71 71 72 72 72 72 72 71 71 71 72 72 73 73 73 73 74 74 75 75 75 74 74 74 75 74 72 70 67 64 62 60 58 54 50 48 47 46 47 49 51 54 55 56 60 65 68 70 68 62 58 55 54 52 50 48 50 50
47 47 47 47 47 47 48 50 52 53 55 55 56 57 58 59 60 60 61 62 63 64 65 66 67 68 69 70 70 70 70 70 70 70 70 70 70 71 72 73 73 74 75 76 77 77 76 75 75 76 76 77 77 75 73 70 66 61 57 54 53 51 49 48 47 47 49 51 54 56 58 60 64 68 71 72 68 63 60 57 56 54 51 50 50
47 47 47 48 48 49 51 52 54 56 56 57 58 59 59 60 61 61 62 63 63 64 64 65 66 67 68 68 68 68 68 68 68 69 69 70 71 72 72 73 74 75 76 76 77 77 76 76 77 77 78 78 78 77 75 71 67 62 56 51 50 50 50 49 48 48 49 51 53 57 59 60 63 67 71 75 73 69 65 60 58 58 56 52 50
47 47 48 48 49 51 52 54 56 57 58 59 60 61 62 62 62 63 63 63 62 62 63 64 64 65 66 66 66 67 67 68 68 69 70 71 72 72 73 74 75 76 76 76 76 77 77 77 78 79 80 79 79 78 76 73 68 62 56 51 48 48 49 50 49 49 49 51 54 57 60 61 63 67 71 75 77 75 71 66 61 60 60 57 54
47 47 48 49 50 51 53 55 57 60 61 63 64 64 64 64 64 64 63 62 61 61 62 63 63 64 64 65 66 67 68 69 70 70 71 71 72 73 74 75 76 77 77 76 76 77 78 80 80 81 81 81 80 79 77 74 69 63 57 52 49 47 47 49 50 50 50 51 54 57 60 63 64 66 70 75 79 79 77 73 67 62 62 61 58
48 49 50 50 51 53 56 58 61 63 64 65 65 65 65 65 64 63 61 60 60 61 62 62 62 63 64 66 67 69 70 71 71 71 71 72 72 72 73 75 76 78 78 78 78 78 79 81 83 84 83 82 80 79 77 74 70 65 60 55 51 49 47 48 50 51 52 52 54 57 60 63 65 67 69 74 79 82 81 78 73 67 64 63 61
50 50 51 52 54 56 59 61 62 64 64 64 65 65 65 64 62 61 60 60 60 61 61 62 63 64 66 68 70 71 71 71 71 71 71 71 72 72 73 73 74 75 77 79 80 80 80 81 83 85 85 82 80 79 76 73 70 66 63 59 54 51 49 49 49 51 53 53 54 56 60 63 66 68 69 73 77 82 84 82 79 73 67 64 63
50 51 52 54 56 58 60 61 62 63 64 65 65 65 64 62 61 60 60 60 61 61 62 63 65 67 69 70 71 71 71 71 71 71 71 71 72 73 73 73 73 73 75 78 80 80 81 82 82 83 84 83 80 78 75 73 70 68 65 63 59 55 52 50 50 51 53 54 55 55 58 63 66 68 70 72 76 81 85 86 83 79 72 67 65
50 52 54 56 58 60 61 62 63 64 65 66 65 64 62 61 60 60 60 61 62 63 65 66 68 69 70 70 70 70 70 70 70 71 71 72 72 72 72 73 73 74 75 77 80 81 81 82 82 80 80 80 78 75 74 73 71 69 67 65 63 60 56 53 52 52 53 55 56 56 57 61 65 68 70 72 75 79 85 88 87 84 78 72 67
52 54 56 58 59 60 61 63 64 65 66 65 64 62 61 61 61 61 62 63 64 65 67 68 69 70 70 70 69 69 70 70 70 71 71 72 72 72 73 73 74 75 76 77 80 82 81 80 80 79 76 75 73 72 72 73 72 70 68 66 63 62 59 56 53 52 54 55 56 56 57 59 63 67 70 72 75 78 83 88 90 88 84 78 72
54 56 57 59 60 61 63 64 65 65 64 63 62 62 62 62 62 62 63 64 65 67 68 69 69 69 69 69 69 69 69 70 70 71 71 72 73 73 74 75 75 76 77 78 79 81 82 79 77 76 73 71 70 68 69 70 71 69 67 65 62 60 59 58 56 53 52 54 56 57 57 58 61 65 69 72 74 77 81 86 90 91 89 84 77
55 57 58 60 61 62 63 64 64 64 64 63 63 63 62 63 63 63 64 65 67 68 68 68 68 68 68 68 68 69 69 70 70 71 72 73 73 74 75 76 76 77 77 78 78 79 80 79 76 74 71 70 68 67 65 66 67 66 65 64 61 58 56 56 56 53 50 51 54 56 57 58 60 63 67 71 74 77 80 84 88 91 92 89 83
58 59 60 61 62 63 64 64 64 64 64 64 63 63 62 62 63 63 65 66 67 68 68 67 67 67 68 68 69 69 70 70 71 72 73 73 74 75 76 77 78 78 78 78 77 76 76 76 74 73 72 70 68 66 63 62 62 62 61 61 59 57 54 52 53 53 50 48 50 55 57 59 61 62 66 70 74 76 79 82 86 90 93 93 88
60 61 62 62 63 64 64 64 64 64 64 63 62 61 62 62 63 64 66 67 67 67 67 66 67 67 68 69 69 69 70 71 72 72 73 74 75 76 77 78 79 79 79 78 76 74 73 73 73 72 71 70 68 65 62 61 60 58 57 57 57 55 52 50 48 49 48 46 46 50 55 59 62 63 65 69 73 76 78 81 85 88 92 94 92
61 62 62 63 63 64 64 63 63 63 62 61 60 61 62 63 64 65 66 66 66 66 66 67 67 68 68 69 69 70 70 71 72 72 73 74 75 76 78 79 79 79 79 77 75 73 71 71 72 72 70 67 65 63 60 58 57 56 54 53 52 52 51 49 46 44 44 44 44 46 51 58 62 65 66 68 71 75 78 80 83 87 91 94 95
61 62 62 63 63 62 62 62 61 61 60 59 60 61 63 64 65 66 66 66 66 66 67 67 68 68 69 69 69 70 70 71 71 72 73 74 76 77 78 79 79 79 78 77 75 74 72 71 71 70 68 65 62 61 58 54 51 51 52 52 49 47 48 49 45 40 39 39 41 44 48 54 60 65 67 69 71 74 77 80 83 86 90 93 95
61 61 61 61 61 60 60 60 59 58 58 59 61 63 64 65 65 65 65 66 66 67 67 68 68 69 69 68 69 69 70 71 71 72 74 75 76 77 78 78 79 79 78 77 75 74 74 72 70 68 66 62 59 58 56 52 47 44 46 50 49 45 45 47 44 38 34 35 38 42 46 51 57 63 68 70 72 74 76 79 82 85 89 93 95
60 59 59 58 58 58 58 57 57 57 59 61 62 64 64 64 64 65 66 66 67 67 67 67 68 68 68 68 68 69 70 70 72 73 75 76 77 77 77 78 78 78 77 76 75 74 73 71 68 66 64 61 57 56 54 50 45 41 40 44 47 45 43 44 43 38 33 32 35 40 45 48 53 61 67 71 73 74 76 79 82 85 88 93 96
57 56 56 56 55 56 56 56 57 58 60 62 63 63 64 64 65 66 66 66 66 66 66 66 66 66 67 68 68 69 70 71 73 74 75 76 76 76 77 78 78 78 76 74 73 73 72 69 66 64 62 59 57 56 54 49 46 44 42 42 44 44 44 43 40 36 34 34 35 39 43 46 50 57 65 71 74 75 76 78 82 85 88 92 96
53 53 53 53 54 55 56 57 59 60 61 62 63 63 64 65 66 65 65 65 65 65 65 65 65 66 66 67 68 69 71 72 74 75 75 75 75 76 77 78 77 76 74 73 72 71 69 66 63 61 60 58 56 55 54 50 47 45 45 45 44 43 44 44 40 34 32 35 38 39 40 43 48 53 60 68 73 75 76 78 81 85 88 91 96
50 50 51 52 54 56 58 59 60 61 62 63 63 64 65 65 65 64 64 64 64 64 64 64 64 65 66 68 69 71 72 73 75 75 76 75 76 77 77 77 75 73 71 72 71 69 66 63 59 57 56 55 54 53 52 49 46 44 43 43 44 43 41 43 42 36 32 34 39 41 38 39 45 50 54 62 70 75 77 77 79 84 87 91 95
49 50 52 53 56 58 59 61 61 62 63 64 64 64 64 64 63 62 62 62 62 62 62 63 64 65 67 69 70 72 73 74 76 76 76 76 78 79 78 77 74 71 70 70 68 65 63 60 57 54 52 52 51 51 50 48 46 44 43 42 43 42 40 40 40 38 34 33 37 40 40 38 40 46 50 56 65 73 77 78 78 81 86 90 94
49 51 53 55 57 59 61 62 62 63 63 64 64 63 62 61 61 61 61 60 60 61 61 63 64 66 68 70 71 73 74 76 76 77 77 78 80 80 79 76 73 72 71 68 65 62 59 56 54 52 50 49 49 48 48 47 46 45 44 44 44 43 41 39 38 36 34 34 35 38 39 38 38 42 47 52 60 69 76 79 78 79 83 88 93
50 52 54 56 58 60 62 62 62 62 62 63 62 61 59 59 59 58 58 58 59 60 62 63 65 67 69 70 72 73 75 76 77 77 78 80 80 79 78 76 74 73 72 68 64 60 57 54 52 51 49 47 47 48 48 47 47 46 46 46 46 45 43 39 37 34 32 32 35 38 39 38 37 39 43 48 56 64 72 78 80 79 81 86 91
52 53 55 58 59 61 62 62 61 61 61 60 59 58 57 57 57 56 57 58 59 61 62 64 66 68 69 70 72 74 75 76 77 78 79 80 79 78 77 76 75 74 71 68 64 61 57 54 52 50 49 48 47 48 48 47 47 46 45 46 46 46 45 41 37 35 32 30 33 38 40 37 35 37 40 45 52 60 66 74 79 80 80 83 88
53 54 56 58 59 60 61 61 60 59 58 57 56 55 55 55 55 56 57 59 60 62 63 65 66 68 69 71 72 74 75 76 76 78 79 79 77 77 76 76 75 73 69 66 63 60 57 54 52 50 50 49 48 47 46 46 45 45 44 44 44 44 43 41 36 32 31 31 32 35 40 38 33 33 37 41 48 55 61 68 76 80 81 81 85
54 56 57 58 59 60 60 59 58 56 55 54 54 54 54 54 55 56 58 60 61 63 64 65 67 68 70 71 73 74 75 75 76 77 77 76 75 75 75 75 75 72 68 65 62 59 57 55 53 52 52 51 49 47 46 45 44 44 44 44 44 43 42 40 37 32 30 30 32 33 36 38 35 32 34 37 43 50 55 62 71 78 81 81 82
56 56 57 57 58 58 58 57 55 54 54 53 53 54 54 54 56 58 59 61 62 64 65 66 67 68 70 71 73 73 74 74 75 75 74 73 73 74 74 74 73 70 68 66 62 59 58 56 55 54 54 53 51 48 47 45 43 42 42 42 43 42 41 39 36 34 31 29 30 32 33 35 35 34 32 33 38 44 50 57 65 73 79 81 81
56 57 56 56 56 56 56 55 54 54 53 53 54 55 55 55 57 59 61 62 64 65 65 66 68 69 70 71 72 73 73 73 73 73 72 71 72 72 73 72 70 68 67 65 62 59 57 56 56 55 55 54 51 48 46 45 44 42 41 40 40 40 39 37 34 34 33 30 28 29 30 30 31 33 33 29 32 39 46 52 60 68 75 79 81
56 56 55 54 55 55 55 55 54 54 54 54 55 56 56 57 59 61 63 64 65 65 66 67 68 69 70 71 72 72 72 71 71 70 70 70 70 70 71 70 68 66 64 61 58 55 53 53 53 53 52 52 50 47 45 44 44 43 42 41 40 39 38 36 34 33 33 33 30 29 29 28 26 28 31 28 26 33 41 49 56 63 69 75 79
Wind_Direction
301 303 304 303 302 299 298 301 307 308 303 298 299 302 304 305 305 302 298 294 292 291 292 292 291 290 291 292 294 296 299 302 306 308 309 310 310 311 311 312 312 314 314 314 314 315 317 319 321 323 325 327 327 327 327 326 322 311 300 293 287 278 275 277 273 269 269 264 258 257 256 255 253 252 255 259 261 262 260 257 257 257 257 259 260
301 301 303 302 300 298 296 297 301 302 300 297 296 299 301 302 301 301 300 297 294 294 293 291 290 289 289 291 293 295 298 301 304 306 307 308 309 309 310 311 312 313 313 313 314 315 317 318 320 322 324 325 325 326 326 324 322 316 305 294 285 278 271 268 268 265 263 262 259 255 254 253 251 248 250 255 260 262 261 260 260 260 260 260 260
306 304 303 302 300 300 299 298 298 298 297 294 293 294 296 296 296 297 297 296 293 292 290 289 288 289 290 292 293 295 298 301 303 305 306 307 308 308 309 310 311 312 312 313 313 314 316 317 319 321 322 324 324 324 325 323 321 317 308 296 283 276 268 261 262 262 261 261 260 256 253 253 250 248 248 252 257 259 260 260 261 263 263 262 262
307 309 308 305 302 301 300 299 298 298 295 293 292 292 292 292 294 295 295 293 290 288 288 287 288 289 291 293 294 296 298 300 302 303 304 305 306 307 308 309 310 311 311 312 312 313 315 317 318 320 322 322 323 323 323 322 321 318 310 300 283 271 265 262 257 256 259 261 260 257 254 254 252 251 251 250 253 255 257 260 261 264 265 265 264
303 310 313 310 305 301 300 300 299 297 295 294 292 291 291 292 294 294 292 291 290 288 288 288 288 289 291 292 294 296 297 299 301 302 303 305 306 307 308 309 309 310 310 311 312 313 314 316 318 320 321 321 321 321 322 321 320 317 310 302 287 268 259 260 255 249 253 259 261 259 255 254 254 254 255 253 251 251 254 258 261 262 265 267 267
297 304 309 313 312 306 302 301 301 298 294 293 292 291 291 292 293 291 289 288 289 288 288 289 289 290 292 293 294 295 297 298 300 301 303 304 305 306 307 308 308 309 309 310 311 313 314 316 318 319 320 320 320 320 320 320 319 316 310 303 291 273 258 255 254 247 245 252 259 260 257 256 256 256 255 253 250 248 250 256 259 261 263 266 268
292 298 303 311 315 314 309 305 302 300 296 293 291 291 291 292 291 288 286 287 288 289 289 290 291 292 293 293 294 295 297 298 299 300 302 303 304 304 306 307 307 308 309 310 311 313 315 316 317 318 318 318 319 319 319 318 317 315 310 304 293 279 263 254 252 246 241 244 251 257 260 257 255 255 253 251 249 246 248 253 256 257 259 262 266
288 293 300 308 313 315 314 311 307 302 297 294 292 291 291 291 289 287 286 286 288 290 291 291 292 293 293 293 294 295 297 298 299 300 301 302 303 304 305 306 307 308 309 310 312 314 315 316 316 316 316 317 317 318 318 317 315 313 309 303 294 283 269 255 248 244 239 239 243 249 255 256 254 252 251 250 249 246 245 250 254 255 254 256 261
285 290 296 303 308 311 313 313 312 305 298 294 293 292 291 290 289 288 287 287 289 290 291 291 292 292 293 294 295 296 297 297 298 300 301 302 303 304 305 306 307 308 309 311 312 314 314 315 315 315 315 316 316 317 317 315 313 311 307 302 295 286 273 259 247 242 239 236 237 241 245 251 254 253 250 250 249 247 246 247 251 253 253 253 256
284 287 292 297 302 307 310 311 311 308 301 295 293 292 291 289 288 288 288 289 290 291 291 291 291 292 293 294 295 296 297 297 298 299 301 302 303 304 305 305 306 308 309 311 313 313 313 313 313 313 314 314 315 315 315 314 312 309 306 300 294 286 277 264 249 240 238 236 235 236 238 242 247 248 248 248 247 245 245 246 247 249 251 252 252
285 287 290 293 297 302 307 310 310 310 305 297 293 292 291 290 289 289 290 291 291 291 291 291 291 292 293 294 295 296 297 297 298 300 301 302 303 303 304 305 306 308 310 311 312 312 312 311 311 312 313 313 313 313 314 313 312 308 305 299 292 285 277 268 254 242 236 233 230 231 233 235 236 239 243 246 246 245 245 244 243 243 247 249 247
284 286 288 291 294 298 303 308 310 310 307 301 296 293 292 292 292 292 291 291 291 291 291 292 292 293 294 294 295 296 296 297 298 300 301 301 302 303 304 305 307 308 310 311 311 311 310 310 310 311 311 312 312 312 312 312 310 308 304 299 292 284 276 268 258 245 237 232 227 227 230 230 230 233 238 245 248 248 246 242 240 240 242 244 244
282 285 287 289 292 295 299 305 308 310 308 305 301 297 295 294 294 293 292 291 291 292 292 293 293 293 293 294 295 295 296 298 299 300 300 301 302 303 304 306 307 309 309 310 310 309 309 309 309 310 311 311 311 311 311 310 308 306 303 299 291 283 275 268 259 249 241 235 229 227 229 229 228 231 235 240 245 250 247 241 240 240 239 240 242
282 284 286 288 289 292 297 302 306 309 309 307 304 301 298 297 295 293 292 292 293 293 293 294 294 293 293 294 295 296 297 298 299 300 301 302 303 304 305 307 308 308 309 309 308 308 308 308 309 309 310 310 310 310 309 308 307 305 302 298 291 283 274 267 261 252 243 238 232 227 227 228 228 229 233 236 240 246 248 244 243 242 238 238 240
283 284 286 288 289 292 296 301 304 307 308 308 306 304 302 299 297 295 294 294 294 293 293 294 293 293 293 294 295 295 296 297 298 300 301 302 303 305 306 307 307 308 308 308 308 308 308 308 308 309 309 309 308 308 308 307 306 304 301 297 291 283 275 266 261 255 246 240 234 227 225 225 226 227 229 232 236 241 247 248 245 243 240 238 238
282 284 286 288 291 293 297 301 303 305 307 308 307 305 304 301 299 297 295 295 294 294 294 294 294 294 294 295 295 296 297 298 299 300 302 303 304 305 306 306 307 307 307 307 307 307 307 308 308 308 308 307 307 307 307 307 306 304 301 297 291 284 275 266 260 255 249 242 236 229 225 223 223 225 226 227 231 236 242 246 245 243 241 239 237
282 284 287 289 292 294 298 301 303 304 306 307 307 306 304 301 299 297 296 295 295 295 294 294 294 295 296 297 298 298 299 300 301 302 303 303 304 305 305 306 306 306 306 307 307 307 307 308 308 307 307 306 306 307 307 307 306 304 302 298 292 284 275 267 259 254 250 244 237 231 226 224 222 223 226 226 228 231 235 241 244 244 243 240 238
282 284 287 290 292 295 298 301 302 303 304 306 306 305 303 301 299 297 296 296 295 295 295 295 296 297 298 299 300 300 301 302 303 303 303 304 304 305 305 306 306 306 307 307 307 308 308 308 308 307 307 307 307 307 307 307 305 304 302 298 293 285 275 267 259 254 250 245 239 233 228 226 223 221 224 226 227 228 230 235 240 243 245 243 239
282 285 288 290 293 296 299 300 301 303 304 305 306 305 303 301 299 297 295 295 295 295 296 297 298 299 300 300 301 301 302 303 303 303 304 304 305 305 306 306 306 307 307 308 308 308 308 308 307 307 307 307 307 308 307 306 305 303 300 298 293 285 276 266 259 253 249 245 241 235 230 228 226 222 221 225 226 226 227 230 234 238 243 244 240
283 286 289 292 295 297 299 300 301 302 303 305 305 304 303 301 299 298 297 296 297 297 298 299 300 300 300 300 301 302 302 303 303 304 305 306 306 306 307 307 307 307 308 308 308 308 307 307 307 307 307 307 307 307 306 305 304 302 299 296 292 285 276 267 258 253 249 245 241 236 232 230 228 223 220 221 223 223 224 226 229 231 236 241 240
285 288 290 293 295 297 298 299 300 301 303 304 304 304 304 303 302 301 300 300 299 300 300 300 300 300 300 301 302 302 303 303 304 305 305 306 307 307 308 308 308 307 307 307 307 306 306 307 307 307 306 306 306 306 305 304 303 301 299 295 290 284 276 268 259 252 248 245 242 237 232 229 228 225 220 219 220 221 222 223 224 227 230 235 238
286 288 290 292 294 295 296 297 298 300 302 303 304 305 305 305 305 304 303 302 301 301 301 301 301 301 301 301 302 302 303 303 304 305 305 306 306 306 307 307 308 308 308 307 307 307 307 308 308 307 307 306 306 306 305 304 303 300 298 294 289 283 276 268 261 253 247 245 242 238 234 229 227 225 221 218 218 218 220 220 221 223 226 230 234
285 287 289 291 292 293 294 296 297 300 301 303 305 306 306 306 306 305 304 303 302 302 302 301 301 301 302 302 302 302 303 304 305 305 306 306 306 306 307 307 307 308 308 308 308 308 309 308 308 307 307 307 307 307 306 305 304 301 296 291 287 282 276 269 262 254 248 244 242 239 235 230 226 225 222 218 217 217 217 218 219 221 224 226 228
285 286 288 289 290 292 293 295 298 300 302 303 305 306 306 306 306 305 305 304 303 303 302 302 302 302 302 303 303 304 305 306 306 306 307 307 307 307 307 307 307 307 308 308 308 308 308 308 308 307 306 307 307 307 306 305 304 301 296 290 284 280 276 270 263 256 249 245 242 239 236 231 226 224 222 219 217 217 216 216 218 219 221 224 225
284 286 287 289 290 292 294 296 298 300 302 303 304 306 307 307 307 306 305 304 304 303 303 302 303 303 304 304 305 306 306 307 307 307 307 307 307 307 307 307 307 307 307 308 308 308 308 308 307 306 306 307 307 307 306 306 304 301 297 291 284 278 274 271 265 258 251 246 242 238 235 232 228 224 222 219 217 217 216 215 216 219 220 222 223
283 285 287 289 291 293 295 297 298 300 301 302 304 306 306 307 306 306 305 305 304 304 303 303 304 305 306 306 306 307 307 307 307 306 306 306 306 306 307 307 307 307 308 308 309 309 308 308 307 307 307 307 308 307 307 305 304 301 297 291 285 279 273 269 265 261 254 247 243 239 235 232 229 225 222 220 217 217 217 216 215 217 220 221 222
284 286 288 291 293 295 296 297 298 299 300 302 303 305 306 306 305 305 305 304 304 304 304 305 305 306 307 307 307 307 306 306 306 306 306 306 306 307 307 308 308 309 310 310 309 309 308 308 308 307 307 308 308 307 306 304 302 300 297 292 286 280 274 268 263 260 256 250 244 239 235 232 229 226 223 220 218 217 217 218 216 215 217 220 221
285 287 290 292 294 295 296 297 298 299 301 302 304 305 305 304 304 304 305 305 305 305 305 305 306 307 307 307 306 306 306 306 306 306 306 306 306 306 307 307 309 310 310 309 309 309 308 308 308 308 308 308 307 306 304 302 300 298 295 292 288 282 275 268 263 259 256 252 246 240 236 232 229 227 224 221 219 217 217 218 217 215 215 217 220
287 290 292 293 294 295 296 297 299 300 302 302 303 303 304 304 304 305 305 305 305 305 305 306 307 307 307 307 306 306 306 306 306 306 306 306 306 306 307 308 309 309 308 308 308 308 308 307 307 308 308 308 307 305 303 301 298 296 293 291 288 283 277 270 263 258 254 252 248 242 237 233 230 227 225 222 220 218 216 217 218 217 215 215 218
289 290 292 293 294 295 297 298 300 300 301 301 302 303 303 304 305 305 305 305 305 305 306 307 308 308 307 307 306 306 306 306 306 306 306 306 307 307 308 309 309 308 308 308 307 307 307 307 307 307 307 306 305 303 302 299 297 295 292 290 287 284 280 273 266 259 254 251 248 245 239 234 231 228 225 223 221 219 217 216 217 218 216 215 216
289 290 291 293 294 296 297 298 299 299 300 301 302 303 304 305 305 305 305 305 305 306 307 308 308 308 307 307 307 306 306 306 306 306 307 307 308 309 309 309 308 308 308 308 307 306 306 307 307 307 306 304 303 302 300 298 296 294 291 289 286 283 280 276 269 262 256 251 248 245 241 235 231 229 227 224 222 220 218 217 217 217 217 215 215
290 291 293 294 295 296 297 298 298 299 300 301 303 304 304 304 305 305 305 305 306 307 308 309 308 308 307 307 307 306 306 306 307 307 307 308 309 309 309 309 309 309 309 308 307 307 308 308 308 307 305 303 302 301 299 298 296 294 291 289 286 283 279 276 272 265 258 252 248 245 243 238 233 230 228 226 223 221 219 217 217 217 218 216 214
291 293 294 295 296 297 297 298 299 300 301 303 303 304 304 304 304 304 305 306 307 308 309 309 308 308 307 307 307 307 307 307 308 308 309 310 310 310 310 310 310 309 309 308 309 309 310 310 309 308 306 305 304 302 300 298 296 294 292 290 287 283 279 276 273 269 261 254 249 246 243 240 236 231 228 227 225 222 220 218 217 217 218 217 214
293 294 295 296 297 298 298 299 300 301 302 303 304 304 303 303 304 305 306 307 308 309 309 308 308 307 307 307 307 307 308 308 309 310 310 311 311 311 311 311 310 310 310 310 311 312 312 311 311 310 309 308 306 305 303 300 297 295 293 291 289 285 281 277 273 270 266 257 249 245 243 240 238 233 229 227 226 224 221 219 218 217 217 217 215
295 296 296 297 298 298 299 300 301 302 302 303 303 303 303 304 305 307 308 308 308 308 308 308 308 308 308 308 308 308 309 309 310 311 311 312 312 312 312 311 311 311 311 312 313 314 314 313 312 312 311 310 308 307 305 302 299 297 294 292 290 287 284 279 274 270 267 261 252 245 241 239 238 236 231 228 226 225 222 220 218 217 217 217 216
295 297 297 298 298 299 300 300 300 301 302 303 303 303 304 305 307 308 308 308 308 308 308 308 308 308 308 308 309 309 310 311 311 312 312 313 313 313 313 313 313 313 313 315 316 316 316 315 315 313 312 311 309 307 305 303 301 299 296 293 291 290 287 282 276 270 266 262 256 247 240 237 236 236 234 229 226 225 223 221 219 218 217 217 216
295 296 297 297 298 299 299 299 300 302 303 303 303 304 306 307 308 309 309 308 308 308 308 308 308 308 309 309 310 310 311 312 312 313 313 314 314 314 314 314 314 315 316 318 319 319 318 318 316 314 313 312 310 307 305 303 302 301 299 296 293 291 288 284 279 273 268 263 257 250 242 236 233 234 234 232 228 225 223 222 219 218 217 217 216
295 296 297 298 298 298 298 299 301 302 303 303 304 306 307 308 309 309 309 308 309 309 309 309 309 309 309 310 311 311 312 313 314 314 315 315 315 316 316 316 316 317 320 321 321 320 320 319 318 316 314 313 311 308 306 305 304 302 301 299 296 292 288 285 283 278 272 264 257 250 244 237 231 230 231 231 230 226 223 222 220 218 217 217 216
295 296 297 297 297 298 298 300 301 302 303 304 305 307 308 308 309 309 309 309 309 309 309 309 309 310 310 311 312 313 313 314 315 316 316 316 317 317 317 317 318 320 322 323 322 321 321 320 319 317 315 314 313 311 309 308 308 306 302 300 298 295 290 287 286 284 278 268 258 250 244 238 232 228 228 229 230 227 223 221 220 218 217 216 216
296 296 296 296 296 297 298 300 301 302 303 305 306 307 308 309 309 309 309 310 309 309 309 310 310 311 311 312 313 314 315 316 316 317 317 318 318 318 318 319 321 322 323 323 323 322 321 321 320 319 317 316 316 314 313 313 314 312 308 303 300 298 294 290 287 286 282 274 263 252 245 240 234 229 226 227 228 228 225 221 219 218 217 215 216
295 294 294 295 296 297 298 300 301 303 304 305 306 307 308 309 310 310 310 310 310 310 310 311 311 312 313 313 315 316 316 317 317 318 319 319 319 319 320 321 322 323 324 324 324 323 322 322 322 320 319 318 317 316 315 315 316 314 310 306 303 300 298 295 292 288 282 276 269 259 248 242 238 232 226 226 227 228 227 223 219 218 216 215 215
292 292 293 294 295 296 298 300 302 303 304 305 306 307 308 309 310 310 310 310 310 311 311 312 313 313 314 315 316 317 317 318 318 319 320 320 320 320 321 322 323 324 325 326 325 324 323 322 322 321 319 318 317 316 315 316 316 313 310 306 304 301 299 297 295 292 284 275 271 266 256 244 240 236 230 226 226 227 228 225 221 218 216 215 214
291 291 293 294 295 296 298 300 302 303 304 305 306 307 309 309 310 310 310 311 311 312 312 313 314 315 316 316 317 318 318 319 320 320 321 321 321 321 322 323 324 326 327 326 325 324 324 323 322 321 320 319 318 317 317 317 317 315 312 309 307 304 302 300 297 295 289 279 272 268 264 253 243 238 233 228 225 225 227 227 224 220 217 215 214
290 291 293 294 295 297 298 300 302 303 304 305 307 308 309 309 310 310 311 312 312 313 314 314 315 316 317 317 318 319 319 320 321 321 322 322 322 322 323 324 326 327 328 327 326 325 324 323 323 323 322 321 321 320 320 321 320 319 316 313 311 308 306 303 300 297 293 286 278 270 265 259 250 241 235 230 227 224 225 227 226 222 219 216 215
290 291 293 294 296 297 299 300 302 303 305 306 307 308 309 310 310 311 312 312 313 314 314 315 316 317 318 318 319 320 321 321 322 322 322 322 322 323 324 325 328 329 329 328 327 326 326 326 325 324 324 325 325 324 324 324 322 320 318 315 313 310 308 307 305 302 297 289 282 275 267 260 253 246 237 231 229 226 223 225 226 225 221 218 216
290 292 294 295 296 297 299 300 302 304 305 306 307 308 309 310 311 312 312 313 313 314 315 316 317 318 319 320 320 321 322 322 322 322 323 323 323 324 325 327 329 329 329 329 329 329 328 328 328 327 327 329 329 327 325 324 322 320 317 315 313 312 311 310 309 306 302 293 283 277 272 265 255 249 241 233 230 228 224 223 225 226 223 220 217
291 293 295 296 296 297 299 301 303 305 306 307 308 308 309 311 312 312 313 313 314 315 316 317 318 319 320 321 321 322 322 322 322 322 322 323 324 326 326 328 329 329 329 330 331 330 329 330 330 331 330 331 330 328 325 324 322 319 317 315 313 312 311 310 310 307 301 294 285 279 277 273 263 252 244 236 231 229 226 223 224 225 225 222 218
291 294 295 296 296 298 300 302 304 306 306 307 308 309 310 311 312 313 313 314 314 315 316 317 318 320 320 321 322 322 322 322 322 322 323 324 326 326 327 328 329 329 330 331 332 332 331 332 333 333 332 331 331 329 326 325 323 321 320 318 317 316 314 314 313 310 302 294 288 282 279 277 273 261 248 239 234 231 227 224 223 224 225 224 220
292 294 295 296 297 299 301 303 305 306 307 307 308 309 310 311 312 313 313 314 315 316 317 317 319 320 321 322 322 322 322 322 321 322 324 326 327 327 327 328 329 331 332 333 333 334 335 335 335 335 333 332 331 330 328 327 326 324 323 322 321 320 319 318 317 313 306 298 292 287 282 279 277 271 258 242 234 232 228 225 223 223 224 225 223
293 295 295 297 299 300 302 303 305 306 306 306 308 309 309 310 311 313 314 315 316 316 317 317 319 320 321 322 322 322 321 321 322 323 325 327 327 326 327 328 330 332 334 334 334 336 337 337 336 336 334 332 331 331 330 328 327 326 326 325 324 323 322 323 323 318 311 304 297 292 287 281 277 275 268 250 233 231 229 225 223 223 223 224 224
294 295 296 298 300 301 302 303 304 305 305 305 307 308 309 309 311 312 314 315 316 316 316 317 318 319 321 322 322 321 321 321 322 324 326 326 326 326 327 328 331 334 335 335 335 336 337 337 336 335 333 331 330 331 331 331 330 330 330 329 329 328 327 326 326 323 316 311 307 302 295 288 279 273 271 260 236 227 228 226 223 223 222 223 224
Height
10799 10797 10796 10795 10795 10794 10793 10794 10794 10793 10792 10791 10790 10789 10788 10787 10786 10785 10784 10783 10782 10781 10779 10778 10777 10775 10774 10772 10770 10767 10765 10762 10760 10758 10756 10754 10751 10749 10747 10745 10743 10741 10738 10736 10733 10731 10728 10725 10721 10716 10714 10711 10708 10705 10701 10699 10696 10691 10687 10685 10683 10681 10680 10680 10680 10680 10679 10677 10676 10677 10678 10678 10679 10679 10680 10680 10681 10681 10681 10681 10681 10681 10681 10682 10682
10796 10795 10794 10793 10792 10791 10790 10790 10790 10790 10789 10789 10788 10786 10785 10784 10783 10782 10781 10780 10779 10777 10776 10775 10773 10771 10770 10768 10766 10763 10761 10758 10756 10754 10752 10749 10747 10744 10742 10740 10738 10736 10733 10730 10727 10724 10721 10719 10717 10712 10709 10706 10702 10700 10696 10692 10688 10686 10682 10680 10678 10677 10676 10676 10675 10675 10675 10674 10673 10674 10674 10674 10675 10676 10676 10677 10678 10678 10678 10678 10678 10678 10678 10678 10678
10794 10792 10791 10789 10788 10787 10787 10786 10786 10785 10785 10785 10784 10783 10782 10781 10780 10779 10777 10776 10775 10774 10772 10770 10768 10767 10765 10763 10761 10759 10756 10754 10752 10750 10747 10744 10742 10739 10737 10735 10733 10730 10727 10724 10721 10718 10715 10713 10710 10707 10703 10700 10697 10694 10692 10686 10682 10680 10677 10676 10674 10672 10672 10672 10671 10671 10671 10670 10670 10671 10671 10671 10672 10673 10673 10674 10674 10675 10675 10675 10675 10675 10675 10675 10675
10792 10790 10789 10787 10786 10784 10784 10782 10781 10781 10781 10780 10780 10779 10778 10777 10775 10774 10773 10771 10770 10769 10767 10765 10763 10762 10761 10759 10757 10754 10752 10750 10747 10745 10742 10740 10737 10734 10731 10729 10727 10724 10721 10718 10715 10711 10709 10706 10704 10702 10698 10693 10690 10688 10686 10681 10677 10674 10672 10671 10669 10668 10668 10668 10668 10667 10666 10666 10666 10668 10668 10668 10669 10670 10670 10670 10671 10671 10672 10672 10672 10672 10672 10672 10672
10790 10788 10786 10785 10784 10782 10781 10779 10778 10777 10776 10776 10775 10774 10773 10772 10771 10769 10768 10766 10765 10764 10762 10760 10758 10757 10756 10754 10752 10750 10747 10744 10742 10739 10737 10734 10731 10728 10725 10723 10721 10719 10716 10712 10709 10705 10702 10700 10698 10696 10693 10688 10684 10681 10679 10676 10673 10670 10667 10665 10663 10662 10663 10664 10664 10664 10663 10662 10663 10664 10665 10665 10666 10667 10667 10667 10667 10667 10668 10668 10669 10669 10669 10669 10669
10786 10785 10784 10782 10781 10780 10778 10777 10776 10774 10773 10771 10770 10769 10768 10767 10766 10764 10762 10761 10760 10759 10757 10756 10753 10752 10751 10749 10747 10744 10742 10739 10736 10733 10731 10728 10725 10722 10720 10717 10715 10712 10710 10707 10703 10699 10696 10693 10691 10689 10687 10684 10679 10675 10672 10669 10667 10665 10662 10660 10658 10657 10657 10659 10659 10659 10659 10659 10659 10660 10661 10662 10662 10663 10663 10663 10664 10664 10664 10665 10665 10665 10666 10666 10666
10782 10781 10780 10779 10778 10776 10775 10774 10772 10771 10769 10767 10766 10765 10764 10763 10761 10759 10757 10756 10755 10754 10753 10751 10748 10747 10746 10744 10741 10738 10736 10733 10730 10727 10725 10722 10719 10716 10713 10711 10709 10706 10703 10700 10697 10693 10689 10686 10683 10681 10679 10677 10674 10670 10666 10663 10661 10659 10657 10655 10653 10651 10651 10652 10653 10653 10654 10655 10656 10656 10657 10658 10658 10658 10658 10659 10659 10660 10661 10661 10661 10662 10662 10663 10663
10777 10777 10776 10775 10774 10773 10771 10770 10769 10767 10766 10764 10762 10761 10760 10758 10756 10754 10752 10750 10749 10749 10747 10745 10743 10741 10740 10738 10735 10733 10730 10727 10724 10721 10718 10716 10713 10710 10707 10704 10701 10698 10695 10692 10689 10686 10682 10679 10676 10674 10672 10670 10668 10665 10661 10657 10654 10652 10651 10649 10647 10646 10645 10646 10647 10647 10648 10650 10651 10652 10652 10653 10653 10653 10654 10654 10654 10655 10656 10657 10657 10658 10659 10659 10659
10774 10773 10772 10771 10771 10769 10768 10767 10765 10764 10762 10760 10759 10757 10756 10754 10751 10749 10747 10745 10744 10744 10742 10740 10737 10735 10733 10732 10730 10727 10724 10721 10718 10715 10712 10709 10706 10703 10700 10697 10694 10691 10688 10685 10681 10678 10674 10671 10669 10666 10665 10662 10660 10658 10655 10652 10648 10646 10644 10642 10640 10639 10639 10640 10640 10641 10642 10644 10646 10647 10647 10648 10648 10648 10648 10648 10649 10651 10651 10652 10654 10654 10655 10656 10656
10770 10769 10768 10768 10767 10766 10765 10763 10762 10760 10758 10756 10755 10753 10751 10749 10747 10745 10743 10741 10740 10739 10738 10735 10733 10730 10728 10726 10723 10721 10718 10715 10712 10709 10706 10703 10699 10696 10693 10690 10687 10684 10682 10678 10674 10670 10666 10663 10661 10659 10657 10655 10652 10650 10648 10646 10643 10640 10638 10636 10634 10633 10633 10633 10634 10634 10636 10638 10640 10641 10642 10643 10643 10642 10642 10642 10644 10645 10646 10647 10649 10650 10651 10652 10652
10765 10765 10764 10764 10763 10762 10761 10759 10758 10756 10754 10752 10750 10749 10747 10745 10743 10741 10739 10737 10735 10734 10733 10731 10728 10725 10723 10720 10717 10715 10712 10709 10706 10703 10700 10696 10693 10690 10687 10683 10680 10678 10675 10671 10668 10664 10659 10655 10653 10652 10650 10647 10645 10642 10640 10638 10636 10634 10632 10630 10627 10626 10626 10627 10627 10628 10629 10632 10634 10635 10636 10637 10637 10636 10636 10637 10638 10640 10641 10643 10645 10646 10647 10648 10649
10761 10760 10760 10759 10759 10758 10757 10756 10754 10752 10750 10748 10746 10744 10742 10741 10739 10737 10734 10732 10730 10729 10728 10727 10724 10720 10718 10715 10712 10709 10705 10703 10700 10698 10694 10690 10687 10684 10680 10677 10674 10671 10668 10665 10661 10658 10653 10648 10645 10643 10642 10640 10637 10635 10633 10631 10628 10626 10625 10623 10621 10619 10619 10619 10620 10620 10622 10625 10627 10629 10630 10631 10631 10631 10632 10632 10633 10635 10637 10639 10640 10642 10643 10644 10645
10757 10756 10755 10755 10754 10753 10753 10752 10750 10748 10746 10743 10741 10739 10737 10736 10734 10732 10729 10727 10725 10724 10723 10722 10719 10716 10713 10710 10707 10703 10699 10696 10694 10692 10688 10684 10680 10677 10673 10669 10666 10663 10660 10657 10654 10651 10647 10642 10637 10635 10633 10631 10629 10627 10626 10624 10621 10619 10617 10615 10614 10613 10611 10612 10613 10613 10614 10617 10620 10622 10623 10625 10625 10626 10628 10628 10629 10630 10632 10634 10636 10637 10638 10640 10641
10753 10752 10751 10750 10749 10749 10748 10747 10746 10744 10742 10739 10736 10735 10733 10731 10729 10726 10724 10722 10720 10719 10717 10716 10714 10712 10708 10705 10702 10698 10694 10691 10687 10685 10682 10678 10673 10670 10665 10661 10658 10655 10652 10650 10647 10644 10640 10635 10631 10627 10625 10622 10620 10619 10617 10616 10614 10612 10610 10607 10606 10605 10604 10604 10605 10606 10607 10609 10612 10614 10616 10618 10619 10621 10622 10623 10624 10625 10628 10630 10632 10633 10634 10635 10636
10748 10747 10746 10745 10744 10744 10743 10742 10741 10739 10737 10734 10732 10730 10728 10725 10723 10721 10719 10717 10715 10713 10711 10709 10707 10705 10703 10700 10697 10694 10690 10686 10682 10679 10677 10672 10667 10663 10658 10654 10650 10646 10643 10641 10638 10635 10631 10628 10624 10620 10617 10614 10612 10610 10608 10607 10605 10604 10602 10600 10598 10597 10596 10596 10596 10597 10599 10601 10604 10606 10608 10610 10612 10614 10616 10618 10619 10621 10623 10625 10627 10628 10629 10631 10632
10744 10743 10742 10741 10740 10739 10738 10737 10735 10734 10732 10730 10727 10725 10723 10720 10718 10716 10714 10712 10709 10707 10705 10703 10700 10698 10696 10693 10691 10688 10684 10681 10677 10673 10670 10666 10661 10656 10651 10647 10642 10639 10636 10633 10630 10626 10623 10620 10617 10613 10610 10606 10604 10602 10599 10597 10595 10595 10594 10592 10590 10588 10588 10588 10588 10589 10590 10592 10595 10598 10600 10602 10605 10607 10609 10611 10613 10615 10618 10619 10621 10622 10624 10625 10627
10739 10739 10738 10736 10735 10734 10733 10732 10730 10728 10727 10725 10723 10721 10718 10716 10714 10711 10709 10706 10704 10701 10699 10696 10694 10691 10689 10685 10682 10679 10676 10673 10669 10665 10662 10659 10654 10649 10644 10640 10635 10631 10628 10625 10622 10618 10614 10611 10608 10605 10602 10599 10596 10593 10591 10588 10585 10584 10584 10583 10582 10580 10579 10579 10579 10580 10582 10584 10586 10589 10591 10594 10597 10600 10602 10604 10606 10609 10612 10613 10615 10616 10617 10620 10622
10734 10734 10733 10732 10731 10729 10728 10727 10725 10723 10722 10720 10718 10716 10714 10712 10709 10707 10704 10701 10698 10695 10692 10690 10687 10684 10681 10678 10674 10671 10667 10663 10659 10655 10652 10650 10647 10642 10637 10632 10627 10623 10619 10616 10613 10609 10605 10601 10598 10595 10592 10589 10586 10584 10581 10579 10576 10574 10573 10573 10572 10571 10570 10570 10570 10571 10572 10575 10577 10580 10583 10585 10588 10592 10595 10598 10600 10602 10605 10607 10609 10610 10611 10613 10616
10729 10729 10728 10727 10726 10724 10723 10722 10720 10718 10716 10715 10713 10711 10709 10707 10705 10702 10699 10696 10693 10690 10686 10683 10680 10676 10673 10670 10666 10663 10659 10656 10651 10646 10642 10639 10637 10635 10631 10625 10618 10614 10610 10606 10603 10599 10595 10592 10588 10585 10582 10579 10576 10574 10571 10569 10567 10565 10563 10562 10561 10561 10561 10561 10561 10562 10563 10565 10568 10571 10574 10576 10579 10583 10587 10590 10593 10595 10598 10600 10602 10604 10605 10606 10609
10725 10724 10723 10722 10721 10719 10718 10717 10715 10713 10712 10710 10708 10706 10704 10702 10700 10697 10694 10691 10687 10684 10680 10677 10674 10670 10666 10663 10659 10655 10652 10648 10644 10639 10633 10628 10624 10622 10620 10618 10612 10606 10601 10598 10594 10591 10587 10583 10580 10575 10572 10569 10567 10565 10563 10560 10558 10555 10553 10552 10551 10550 10550 10551 10552 10552 10554 10555 10558 10561 10564 10567 10570 10574 10578 10582 10585 10588 10591 10593 10595 10597 10599 10600 10602
10720 10719 10718 10717 10716 10714 10713 10711 10710 10708 10707 10705 10703 10701 10699 10697 10695 10692 10688 10685 10681 10678 10674 10671 10667 10664 10660 10656 10652 10648 10644 10640 10636 10632 10627 10621 10616 10610 10607 10605 10603 10599 10595 10591 10587 10583 10579 10575 10571 10567 10564 10560 10558 10556 10555 10553 10549 10546 10543 10541 10540 10539 10539 10540 10542 10543 10544 10545 10547 10551 10554 10557 10560 10565 10569 10573 10577 10580 10583 10585 10588 10590 10592 10594 10596
10715 10714 10713 10712 10711 10710 10708 10707 10705 10704 10702 10700 10698 10696 10694 10691 10689 10686 10682 10679 10675 10672 10668 10665 10661 10657 10653 10650 10646 10642 10638 10634 10630 10625 10621 10616 10611 10606 10601 10596 10593 10589 10585 10580 10577 10573 10569 10564 10560 10557 10553 10550 10547 10545 10544 10543 10541 10538 10534 10531 10529 10529 10529 10529 10531 10533 10534 10536 10537 10540 10544 10547 10551 10555 10559 10564 10568 10572 10575 10578 10580 10583 10585 10587 10590
10710 10709 10708 10707 10706 10705 10703 10702 10700 10699 10697 10695 10693 10691 10688 10686 10683 10680 10676 10673 10669 10666 10662 10658 10654 10650 10647 10643 10640 10636 10632 10627 10623 10619 10614 10610 10605 10600 10595 10590 10586 10582 10577 10571 10566 10562 10557 10553 10550 10546 10542 10539 10535 10533 10531 10530 10529 10527 10525 10522 10519 10518 10518 10519 10520 10522 10524 10526 10527 10530 10533 10537 10541 10545 10549 10555 10559 10563 10566 10570 10573 10575 10578 10581 10584
10705 10704 10703 10702 10701 10699 10698 10696 10695 10693 10691 10689 10687 10685 10683 10680 10677 10674 10670 10667 10663 10660 10656 10652 10648 10644 10640 10636 10632 10628 10624 10619 10615 10611 10606 10602 10597 10593 10587 10582 10578 10573 10569 10564 10558 10554 10549 10544 10540 10536 10533 10529 10525 10522 10520 10518 10516 10515 10514 10513 10511 10508 10507 10508 10510 10511 10513 10515 10517 10520 10522 10526 10531 10535 10539 10544 10549 10554 10558 10562 10565 10568 10571 10573 10577
10700 10699 10697 10696 10695 10694 10692 10691 10689 10688 10686 10684 10682 10680 10678 10675 10671 10668 10664 10661 10658 10654 10650 10646 10642 10638 10634 10629 10625 10620 10616 10612 10608 10604 10600 10595 10590 10585 10581 10576 10571 10566 10562 10557 10551 10545 10540 10536 10532 10526 10522 10520 10516 10510 10508 10506 10504 10503 10502 10501 10501 10500 10498 10498 10499 10501 10503 10504 10506 10509 10512 10515 10520 10524 10529 10534 10539 10544 10549 10553 10557 10560 10563 10566 10569
10694 10693 10692 10691 10690 10688 10687 10685 10684 10682 10680 10679 10677 10674 10672 10669 10666 10662 10659 10655 10652 10648 10644 10640 10636 10632 10627 10623 10618 10614 10609 10605 10601 10597 10593 10589 10585 10579 10573 10567 10561 10556 10552 10548 10544 10538 10531 10525 10521 10517 10512 10507 10504 10500 10495 10493 10492 10491 10490 10490 10489 10490 10489 10488 10488 10489 10491 10494 10495 10498 10501 10505 10509 10513 10518 10524 10529 10534 10539 10544 10549 10552 10555 10558 10561
10689 10688 10687 10686 10684 10683 10682 10680 10678 10677 10675 10673 10671 10668 10666 10662 10660 10657 10653 10650 10646 10642 10638 10634 10630 10626 10622 10617 10613 10608 10603 10599 10595 10591 10587 10582 10578 10573 10568 10561 10553 10546 10539 10535 10533 10529 10523 10516 10508 10504 10501 10498 10493 10488 10484 10481 10480 10478 10478 10478 10478 10478 10479 10479 10479 10479 10480 10482 10484 10487 10490 10494 10498 10502 10507 10513 10519 10524 10529 10534 10539 10544 10547 10551 10554
10683 10683 10682 10681 10679 10678 10676 10674 10672 10671 10669 10667 10665 10662 10659 10656 10654 10651 10647 10643 10639 10635 10632 10628 10624 10620 10616 10611 10606 10602 10597 10593 10589 10585 10580 10576 10571 10567 10562 10557 10551 10543 10533 10525 10521 10517 10513 10509 10502 10492 10487 10486 10483 10477 10472 10469 10467 10466 10465 10465 10466 10466 10467 10468 10468 10468 10469 10471 10473 10475 10479 10483 10487 10491 10496 10502 10508 10513 10519 10524 10529 10534 10539 10543 10546
10678 10677 10676 10675 10674 10672 10670 10668 10666 10664 10663 10661 10659 10656 10653 10650 10647 10644 10641 10637 10633 10629 10625 10622 10618 10614 10609 10604 10600 10595 10591 10587 10582 10578 10573 10569 10565 10560 10555 10550 10545 10540 10532 10522 10515 10510 10503 10499 10497 10489 10478 10472 10470 10466 10461 10457 10454 10453 10452 10452 10453 10454 10454 10455 10457 10457 10458 10459 10461 10464 10468 10472 10476 10481 10486 10491 10497 10503 10508 10514 10519 10525 10530 10535 10539
10673 10672 10671 10670 10668 10667 10665 10662 10660 10658 10657 10655 10653 10650 10647 10643 10641 10638 10634 10630 10626 10622 10619 10615 10611 10606 10602 10597 10593 10589 10584 10580 10575 10571 10567 10562 10557 10552 10547 10543 10537 10532 10527 10518 10508 10503 10498 10490 10486 10484 10476 10466 10460 10456 10449 10445 10442 10440 10439 10439 10440 10441 10441 10442 10444 10445 10447 10448 10450 10453 10457 10461 10466 10471 10475 10480 10486 10492 10498 10503 10508 10514 10520 10526 10530
10668 10667 10666 10664 10663 10661 10659 10657 10655 10653 10651 10649 10646 10643 10640 10637 10634 10631 10627 10623 10619 10615 10612 10608 10603 10599 10595 10590 10586 10581 10577 10573 10568 10564 10559 10554 10549 10544 10539 10535 10530 10523 10517 10511 10501 10492 10490 10486 10477 10473 10469 10461 10453 10449 10441 10433 10429 10427 10426 10426 10426 10427 10428 10429 10431 10433 10435 10437 10440 10443 10447 10451 10456 10460 10465 10470 10475 10481 10487 10493 10498 10503 10510 10517 10522
10663 10662 10660 10659 10657 10655 10653 10651 10649 10647 10645 10642 10640 10636 10633 10630 10627 10624 10621 10616 10612 10609 10604 10600 10596 10591 10587 10583 10578 10574 10570 10565 10561 10557 10552 10546 10541 10536 10531 10525 10521 10516 10508 10503 10495 10484 10476 10475 10470 10463 10458 10452 10445 10441 10434 10424 10417 10415 10412 10412 10413 10414 10414 10415 10417 10420 10424 10427 10430 10433 10437 10441 10445 10450 10455 10459 10464 10470 10476 10482 10488 10493 10499 10506 10512
10657 10656 10654 10652 10651 10649 10647 10645 10642 10640 10638 10635 10632 10629 10626 10623 10621 10618 10614 10610 10605 10601 10597 10593 10588 10584 10580 10576 10571 10567 10563 10558 10554 10549 10543 10538 10533 10527 10522 10516 10511 10507 10501 10493 10487 10479 10467 10460 10456 10450 10445 10441 10435 10430 10425 10416 10408 10404 10400 10398 10399 10401 10403 10403 10404 10407 10413 10417 10420 10424 10428 10431 10435 10440 10444 10449 10454 10459 10465 10471 10477 10483 10489 10495 10503
10651 10650 10648 10646 10644 10642 10640 10638 10635 10633 10630 10628 10625 10622 10619 10616 10614 10611 10607 10603 10598 10594 10590 10586 10581 10577 10573 10569 10564 10560 10556 10551 10546 10541 10535 10529 10524 10518 10512 10507 10500 10495 10490 10485 10479 10473 10463 10452 10444 10438 10432 10427 10423 10418 10414 10408 10401 10395 10391 10387 10386 10388 10391 10393 10393 10395 10401 10407 10411 10414 10418 10421 10424 10428 10433 10438 10443 10448 10454 10461 10467 10473 10478 10485 10492
10646 10644 10642 10640 10638 10636 10633 10631 10628 10626 10623 10621 10619 10616 10613 10610 10607 10604 10600 10595 10591 10587 10583 10579 10575 10570 10566 10562 10557 10553 10548 10543 10538 10533 10528 10521 10515 10510 10503 10497 10491 10484 10478 10474 10469 10463 10455 10445 10436 10429 10423 10417 10412 10407 10403 10398 10392 10387 10383 10379 10376 10376 10378 10381 10383 10386 10390 10395 10400 10404 10407 10410 10413 10416 10421 10426 10431 10437 10443 10449 10456 10462 10468 10474 10481
10639 10637 10635 10633 10631 10629 10626 10624 10621 10619 10617 10615 10612 10609 10606 10603 10601 10597 10592 10588 10584 10580 10576 10572 10568 10563 10559 10555 10550 10545 10540 10536 10531 10525 10520 10514 10507 10501 10495 10488 10481 10475 10468 10463 10457 10451 10445 10437 10427 10419 10414 10409 10403 10397 10393 10389 10383 10378 10375 10372 10370 10368 10367 10368 10372 10377 10380 10385 10390 10393 10396 10398 10401 10405 10408 10413 10419 10424 10431 10437 10444 10451 10457 10464 10470
10634 10631 10629 10627 10625 10622 10620 10617 10615 10613 10611 10608 10605 10603 10600 10597 10594 10590 10586 10581 10578 10574 10569 10565 10561 10557 10552 10548 10543 10538 10533 10528 10523 10518 10512 10507 10500 10493 10486 10479 10472 10466 10459 10452 10445 10438 10433 10427 10419 10410 10404 10400 10394 10387 10383 10382 10378 10372 10366 10362 10363 10363 10358 10356 10361 10368 10372 10376 10379 10381 10383 10386 10389 10393 10396 10400 10405 10411 10418 10424 10432 10439 10445 10452 10459
10628 10625 10622 10620 10618 10615 10613 10611 10609 10607 10605 10602 10599 10596 10593 10590 10587 10583 10579 10575 10571 10567 10563 10558 10554 10550 10545 10541 10536 10531 10526 10521 10516 10510 10504 10499 10493 10485 10478 10471 10464 10457 10450 10443 10436 10428 10422 10416 10410 10403 10395 10391 10386 10379 10373 10372 10371 10369 10362 10353 10351 10354 10352 10347 10351 10359 10364 10367 10368 10369 10370 10372 10377 10380 10383 10386 10391 10397 10404 10412 10419 10426 10433 10440 10447
10621 10618 10616 10613 10611 10609 10607 10605 10603 10601 10599 10596 10593 10590 10587 10584 10581 10577 10573 10569 10565 10561 10556 10552 10547 10543 10538 10533 10529 10524 10520 10514 10508 10503 10497 10490 10484 10478 10470 10463 10456 10449 10443 10436 10428 10420 10414 10407 10401 10394 10387 10382 10377 10371 10366 10363 10362 10361 10358 10350 10343 10343 10343 10342 10344 10350 10355 10357 10357 10356 10357 10360 10364 10366 10369 10372 10376 10382 10390 10398 10405 10413 10420 10428 10435
10615 10612 10610 10607 10605 10603 10601 10600 10598 10596 10593 10590 10587 10584 10580 10577 10574 10570 10566 10562 10558 10554 10550 10545 10540 10536 10531 10526 10522 10518 10512 10507 10502 10496 10490 10483 10476 10470 10463 10456 10450 10443 10437 10430 10422 10414 10406 10401 10394 10386 10379 10373 10369 10362 10357 10356 10354 10351 10348 10344 10339 10336 10334 10334 10338 10344 10346 10346 10345 10344 10345 10349 10351 10354 10357 10360 10364 10369 10376 10383 10391 10398 10406 10414 10422
10609 10607 10604 10602 10600 10597 10596 10594 10592 10590 10587 10584 10581 10578 10575 10571 10568 10564 10560 10556 10552 10547 10543 10539 10534 10529 10525 10520 10515 10511 10506 10500 10495 10489 10483 10477 10471 10464 10457 10451 10444 10438 10431 10424 10416 10408 10400 10394 10388 10381 10372 10366 10362 10357 10351 10349 10348 10344 10340 10336 10332 10331 10329 10327 10330 10337 10339 10336 10332 10332 10336 10340 10341 10343 10347 10350 10354 10358 10363 10369 10377 10384 10392 10400 10408
10604 10602 10599 10597 10595 10592 10590 10589 10587 10584 10581 10578 10575 10572 10569 10565 10561 10558 10554 10550 10545 10541 10536 10532 10528 10523 10518 10513 10508 10503 10498 10493 10487 10481 10475 10469 10463 10457 10451 10446 10440 10434 10426 10418 10410 10403 10395 10388 10383 10377 10369 10362 10357 10352 10347 10343 10341 10339 10335 10330 10326 10325 10325 10322 10321 10326 10330 10328 10322 10320 10325 10331 10332 10333 10338 10342 10345 10348 10351 10356 10364 10371 10378 10386 10394
10599 10597 10595 10592 10590 10587 10585 10583 10581 10579 10576 10573 10570 10566 10563 10559 10556 10552 10548 10544 10539 10535 10531 10526 10521 10516 10511 10506 10501 10496 10491 10485 10479 10473 10467 10461 10454 10448 10442 10437 10432 10427 10421 10414 10406 10398 10390 10383 10378 10372 10365 10359 10353 10347 10342 10338 10335 10331 10328 10324 10321 10318 10319 10318 10315 10316 10320 10320 10316 10312 10314 10320 10323 10324 10329 10333 10336 10338 10341 10345 10352 10359 10366 10373 10381
10594 10592 10590 10587 10584 10582 10579 10578 10576 10573 10570 10567 10564 10561 10557 10554 10550 10546 10542 10538 10534 10530 10525 10521 10516 10511 10506 10500 10495 10489 10483 10477 10471 10465 10459 10453 10447 10440 10434 10428 10423 10418 10413 10408 10401 10394 10387 10379 10372 10367 10361 10355 10349 10343 10338 10333 10329 10325 10321 10317 10314 10312 10312 10312 10310 10310 10311 10310 10308 10305 10305 10308 10312 10315 10319 10322 10324 10327 10330 10334 10340 10348 10355 10361 10369
10589 10587 10585 10582 10579 10576 10574 10572 10570 10568 10565 10561 10558 10555 10552 10548 10545 10541 10537 10533 10529 10524 10520 10515 10510 10505 10500 10495 10489 10483 10477 10471 10464 10458 10452 10445 10439 10432 10426 10420 10415 10409 10403 10397 10392 10386 10380 10374 10367 10361 10356 10351 10345 10338 10333 10329 10324 10320 10315 10311 10307 10304 10304 10305 10305 10304 10304 10303 10299 10295 10295 10298 10303 10305 10309 10312 10313 10315 10319 10324 10329 10336 10344 10351 10358
10583 10581 10579 10576 10573 10571 10568 10566 10565 10562 10559 10555 10552 10549 10546 10543 10539 10536 10532 10528 10524 10519 10515 10510 10505 10500 10495 10489 10483 10477 10471 10464 10458 10451 10445 10438 10432 10425 10418 10412 10407 10402 10396 10390 10383 10377 10371 10366 10361 10354 10349 10345 10340 10334 10329 10324 10320 10316 10312 10307 10302 10298 10296 10297 10298 10298 10297 10295 10292 10286 10283 10288 10294 10296 10298 10302 10303 10304 10309 10314 10318 10324 10332 10339 10347
10578 10576 10573 10571 10568 10565 10563 10561 10559 10556 10553 10549 10546 10543 10540 10537 10534 10530 10527 10523 10518 10514 10510 10505 10500 10495 10489 10484 10478 10472 10466 10459 10452 10446 10439 10433 10426 10419 10412 10406 10401 10396 10391 10385 10378 10372 10365 10359 10354 10348 10343 10339 10335 10331 10326 10321 10316 10311 10307 10303 10299 10295 10291 10290 10292 10293 10291 10288 10285 10281 10276 10278 10285 10288 10289 10291 10293 10295 10299 10305 10308 10313 10319 10327 10335
10572 10570 10568 10565 10562 10559 10557 10555 10553 10550 10547 10544 10541 10538 10535 10532 10529 10525 10521 10517 10513 10509 10504 10500 10495 10490 10484 10479 10473 10467 10461 10454 10448 10442 10435 10428 10421 10415 10408 10402 10396 10390 10384 10378 10373 10366 10359 10352 10346 10341 10336 10332 10329 10325 10320 10317 10312 10307 10301 10296 10292 10289 10286 10283 10284 10285 10284 10281 10278 10276 10272 10270 10274 10279 10280 10282 10284 10287 10291 10296 10298 10302 10307 10314 10323
10566 10565 10562 10559 10556 10554 10551 10549 10547 10544 10541 10538 10535 10532 10530 10526 10523 10520 10516 10512 10508 10504 10499 10495 10490 10485 10479 10474 10468 10462 10456 10450 10444 10437 10431 10424 10417 10411 10404 10398 10392 10385 10377 10371 10365 10359 10352 10345 10340 10335 10330 10325 10322 10319 10314 10310 10307 10303 10298 10293 10288 10284 10281 10279 10278 10276 10276 10275 10272 10270 10268 10266 10267 10269 10270 10273 10277 10279 10282 10286 10289 10291 10296 10302 10310
10561 10559 10557 10554 10550 10548 10545 10543 10541 10538 10535 10533 10530 10527 10524 10521 10518 10514 10510 10507 10503 10499 10494 10489 10485 10480 10475 10469 10464 10458 10452 10446 10440 10433 10427 10421 10414 10408 10401 10395 10389 10383 10375 10367 10360 10354 10348 10341 10335 10329 10324 10320 10317 10314 10310 10305 10302 10298 10295 10290 10286 10281 10277 10275 10273 10270 10267 10267 10266 10264 10262 10261 10262 10261 10261 10264 10269 10272 10274 10277 10279 10283 10287 10292 10299
10555 10553 10551 10548 10545 10542 10540 10537 10535 10532 10530 10527 10525 10522 10519 10516 10512 10509 10505 10502 10498 10493 10489 10485 10480 10475 10470 10465 10459 10453 10448 10442 10436 10430 10424 10418 10412 10406 10400 10393 10387 10380 10374 10367 10360 10354 10348 10342 10336 10330 10324 10318 10314 10310 10306 10302 10297 10293 10290 10287 10282 10278 10274 10272 10270 10267 10263 10260 10259 10258 10256 10255 10256 10256 10254 10256 10262 10265 10266 10267 10270 10275 10279 10284 10290